TimeEST,TemperatureF,Dew PointF,Humidity,Sea Level PressureIn,VisibilityMPH,Wind Direction,Wind SpeedMPH,Gust SpeedMPH,PrecipitationIn,Events,Conditions,WindDirDegrees,DateUTC
12:00 AM,37.0,33.1,86,30.24,9.0,Variable,3.5,-,N/A,,Overcast,0,2012-11-28 05:00:00
12:11 AM,37.0,33.1,86,30.24,9.0,Variable,3.5,-,N/A,,Overcast,0,2012-11-28 05:11:00
12:51 AM,37.0,33.1,86,30.20,9.0,Variable,5.8,-,N/A,,Overcast,0,2012-11-28 05:51:00
1:51 AM,36.0,30.9,82,30.18,10.0,Variable,4.6,-,N/A,,Partly Cloudy,0,2012-11-28 06:51:00
2:51 AM,37.0,30.0,76,30.20,10.0,Variable,5.8,-,N/A,,Overcast,0,2012-11-28 07:51:00
3:51 AM,36.0,30.0,79,30.19,10.0,Variable,3.5,-,N/A,,Overcast,0,2012-11-28 08:51:00
4:51 AM,36.0,28.0,73,30.20,10.0,North,-9999.0,-,N/A,,Overcast,0,2012-11-28 09:51:00
5:51 AM,34.0,28.0,79,30.22,10.0,Variable,4.6,-,N/A,,Mostly Cloudy,0,2012-11-28 10:51:00
6:51 AM,34.0,28.0,79,30.22,10.0,Variable,3.5,-,N/A,,Scattered Clouds,0,2012-11-28 11:51:00
7:51 AM,35.1,27.0,72,30.22,10.0,Variable,3.5,-,N/A,,Scattered Clouds,0,2012-11-28 12:51:00
8:51 AM,36.0,27.0,70,30.24,10.0,Variable,3.5,-,N/A,,Partly Cloudy,0,2012-11-28 13:51:00
9:51 AM,37.0,26.1,65,30.24,10.0,WNW,6.9,-,N/A,,Clear,290,2012-11-28 14:51:00
10:51 AM,39.0,25.0,57,30.22,10.0,Calm,Calm,-,N/A,,Mostly Cloudy,0,2012-11-28 15:51:00
11:51 AM,39.0,23.0,53,30.20,10.0,North,-9999.0,-,N/A,,Clear,0,2012-11-28 16:51:00
12:51 PM,39.9,21.9,49,30.18,10.0,West,6.9,-,N/A,,Mostly Cloudy,270,2012-11-28 17:51:00
1:51 PM,39.9,21.0,47,30.18,10.0,Variable,6.9,17.3,N/A,,Scattered Clouds,0,2012-11-28 18:51:00
2:51 PM,37.9,21.0,51,30.18,10.0,West,8.1,16.1,N/A,,Mostly Cloudy,270,2012-11-28 19:51:00
3:51 PM,37.0,21.0,52,30.19,10.0,WNW,10.4,20.7,N/A,,Partly Cloudy,290,2012-11-28 20:51:00
4:51 PM,36.0,19.9,52,30.22,10.0,Variable,6.9,18.4,N/A,,Clear,0,2012-11-28 21:51:00
5:51 PM,35.1,21.0,57,30.24,10.0,Variable,6.9,-,N/A,,Clear,0,2012-11-28 22:51:00
6:51 PM,36.0,21.0,55,30.25,10.0,West,4.6,-,N/A,,Clear,280,2012-11-28 23:51:00
7:51 PM,36.0,21.0,55,30.26,10.0,West,4.6,-,N/A,,Clear,270,2012-11-29 00:51:00
8:51 PM,36.0,21.0,55,30.26,10.0,WNW,4.6,-,N/A,,Clear,290,2012-11-29 01:51:00
9:51 PM,35.1,21.9,59,30.27,10.0,WSW,5.8,-,N/A,,Clear,250,2012-11-29 02:51:00
10:51 PM,35.1,21.9,59,30.27,10.0,North,-9999.0,-,N/A,,Clear,0,2012-11-29 03:51:00
11:51 PM,35.1,21.9,59,30.27,10.0,West,9.2,16.1,N/A,,Clear,280,2012-11-29 04:51:00